owner,sensor,date,latitude,longitude,vertical_datum,sea_water_practical_salinity,qcFlag 
SCCF RECON,ioos:station:SCCF:13:1,2019-09-01T04:00:00Z,26.5255,-82.0032,2.249,10.81,11111222 
SCCF RECON,ioos:station:SCCF:13:1,2019-09-01T05:00:00Z,26.5255,-82.0032,2.356,14.09,11111222 
SCCF RECON,ioos:station:SCCF:13:1,2019-09-01T06:00:00Z,26.5255,-82.0032,2.41,19.14,11111222 
SCCF RECON,ioos:station:SCCF:13:1,2019-09-01T07:00:00Z,26.5255,-82.0032,2.47,23.89,11111222 
SCCF RECON,ioos:station:SCCF:13:1,2019-09-01T08:00:00Z,26.5255,-82.0032,2.504,26.17,11111222 
SCCF RECON,ioos:station:SCCF:13:1,2019-09-01T09:00:00Z,26.5255,-82.0032,2.46,26.86,11111222 
SCCF RECON,ioos:station:SCCF:13:1,2019-09-01T10:00:00Z,26.5255,-82.0032,2.363,27.49,11111222 
SCCF RECON,ioos:station:SCCF:13:1,2019-09-01T11:00:00Z,26.5255,-82.0032,2.25,25.32,11111222 
SCCF RECON,ioos:station:SCCF:13:1,2019-09-01T12:00:00Z,26.5255,-82.0032,2.16,15.75,11111222 
SCCF RECON,ioos:station:SCCF:13:1,2019-09-01T13:00:00Z,26.5255,-82.0032,2.1,12.88,11111222 
SCCF RECON,ioos:station:SCCF:13:1,2019-09-01T14:00:00Z,26.5255,-82.0032,2.08,10.79,11111222 
SCCF RECON,ioos:station:SCCF:13:1,2019-09-01T15:00:00Z,26.5255,-82.0032,2.211,9.8,11111222 
SCCF RECON,ioos:station:SCCF:13:1,2019-09-01T16:00:00Z,26.5255,-82.0032,2.38,15.8,11111222 
SCCF RECON,ioos:station:SCCF:13:1,2019-09-01T17:00:00Z,26.5255,-82.0032,2.476,20.46,11111222 
SCCF RECON,ioos:station:SCCF:13:1,2019-09-01T18:00:00Z,26.5255,-82.0032,2.537,25.15,11111222 
SCCF RECON,ioos:station:SCCF:13:1,2019-09-01T19:00:00Z,26.5255,-82.0032,2.6,28.06,11111222 
SCCF RECON,ioos:station:SCCF:13:1,2019-09-01T20:00:00Z,26.5255,-82.0032,2.646,28.64,11111222 
SCCF RECON,ioos:station:SCCF:13:1,2019-09-01T21:00:00Z,26.5255,-82.0032,2.6,28.26,11111222 
SCCF RECON,ioos:station:SCCF:13:1,2019-09-01T22:00:00Z,26.5255,-82.0032,2.48,28.77,11111222 
SCCF RECON,ioos:station:SCCF:13:1,2019-09-01T23:00:00Z,26.5255,-82.0032,2.346,27.11,11111222 
SCCF RECON,ioos:station:SCCF:13:1,2019-09-02T04:00:00Z,26.5255,-82.0032,2.174,11.51,11111222 
SCCF RECON,ioos:station:SCCF:13:1,2019-09-02T05:00:00Z,26.5255,-82.0032,2.34,12.01,11111222 
SCCF RECON,ioos:station:SCCF:13:1,2019-09-02T06:00:00Z,26.5255,-82.0032,2.4,17.52,11111222 
SCCF RECON,ioos:station:SCCF:13:1,2019-09-02T07:00:00Z,26.5255,-82.0032,2.47,22.45,11111222 
SCCF RECON,ioos:station:SCCF:13:1,2019-09-02T08:00:00Z,26.5255,-82.0032,2.51,25.24,11111222 
SCCF RECON,ioos:station:SCCF:13:1,2019-09-02T09:00:00Z,26.5255,-82.0032,2.482,26.51,11111222 
SCCF RECON,ioos:station:SCCF:13:1,2019-09-02T10:00:00Z,26.5255,-82.0032,2.38,27.02,11111222 
SCCF RECON,ioos:station:SCCF:13:1,2019-09-02T11:00:00Z,26.5255,-82.0032,2.26,25.59,11111222 
SCCF RECON,ioos:station:SCCF:13:1,2019-09-02T12:00:00Z,26.5255,-82.0032,2.17,17.76,11111222 
SCCF RECON,ioos:station:SCCF:13:1,2019-09-02T13:00:00Z,26.5255,-82.0032,2.1,13.2,11111222 
SCCF RECON,ioos:station:SCCF:13:1,2019-09-02T16:00:00Z,26.5255,-82.0032,2.097,9.57,11111222 
SCCF RECON,ioos:station:SCCF:13:1,2019-09-02T17:00:00Z,26.5255,-82.0032,2.221,9.34,11111222 
SCCF RECON,ioos:station:SCCF:13:1,2019-09-02T18:00:00Z,26.5255,-82.0032,2.31,13.68,11111222 
SCCF RECON,ioos:station:SCCF:13:1,2019-09-02T19:00:00Z,26.5255,-82.0032,2.397,18.74,11111222 
SCCF RECON,ioos:station:SCCF:13:1,2019-09-02T20:00:00Z,26.5255,-82.0032,2.455,23.34,11111222 
SCCF RECON,ioos:station:SCCF:13:1,2019-09-02T21:00:00Z,26.5255,-82.0032,2.5,24.96,11111222 
SCCF RECON,ioos:station:SCCF:13:1,2019-09-02T22:00:00Z,26.5255,-82.0032,2.44,26.09,11111222 
SCCF RECON,ioos:station:SCCF:13:1,2019-09-02T23:00:00Z,26.5255,-82.0032,2.31,25.39,11111222 
SCCF RECON,ioos:station:SCCF:13:1,2019-09-03T04:00:00Z,26.5255,-82.0032,2.01,10.11,11111222 
SCCF RECON,ioos:station:SCCF:13:1,2019-09-03T05:00:00Z,26.5255,-82.0032,2.14,9.05,11111222 
SCCF RECON,ioos:station:SCCF:13:1,2019-09-03T06:00:00Z,26.5255,-82.0032,2.28,12.79,11111222 
SCCF RECON,ioos:station:SCCF:13:1,2019-09-03T07:00:00Z,26.5255,-82.0032,2.34,17.14,11111222 
SCCF RECON,ioos:station:SCCF:13:1,2019-09-03T08:00:00Z,26.5255,-82.0032,2.4,19.71,11111222 
SCCF RECON,ioos:station:SCCF:13:1,2019-09-03T09:00:00Z,26.5255,-82.0032,2.4,22.98,11111222 
SCCF RECON,ioos:station:SCCF:13:1,2019-09-03T10:00:00Z,26.5255,-82.0032,2.35,23.83,11111222 
SCCF RECON,ioos:station:SCCF:13:1,2019-09-03T11:00:00Z,26.5255,-82.0032,2.27,24.44,11111222 
SCCF RECON,ioos:station:SCCF:13:1,2019-09-03T12:00:00Z,26.5255,-82.0032,2.17,21.39,11111222 
SCCF RECON,ioos:station:SCCF:13:1,2019-09-03T13:00:00Z,26.5255,-82.0032,2.093,15.98,11111222 
SCCF RECON,ioos:station:SCCF:13:1,2019-09-03T14:00:00Z,26.5255,-82.0032,2.02,12.9,11111222 
SCCF RECON,ioos:station:SCCF:13:1,2019-09-03T15:00:00Z,26.5255,-82.0032,1.96,11.6,11111222 
SCCF RECON,ioos:station:SCCF:13:1,2019-09-03T16:00:00Z,26.5255,-82.0032,1.938,9.37,11111222 
SCCF RECON,ioos:station:SCCF:13:1,2019-09-03T17:00:00Z,26.5255,-82.0032,2.01,8.36,11111222 
SCCF RECON,ioos:station:SCCF:13:1,2019-09-03T18:00:00Z,26.5255,-82.0032,2.157,8.58,11111222 
SCCF RECON,ioos:station:SCCF:13:1,2019-09-03T19:00:00Z,26.5255,-82.0032,2.23,12.26,11111222 
SCCF RECON,ioos:station:SCCF:13:1,2019-09-03T20:00:00Z,26.5255,-82.0032,2.3,15.64,11111222 
SCCF RECON,ioos:station:SCCF:13:1,2019-09-03T21:00:00Z,26.5255,-82.0032,2.37,19.12,11111222 
SCCF RECON,ioos:station:SCCF:13:1,2019-09-03T22:00:00Z,26.5255,-82.0032,2.374,21.65,11111222 
SCCF RECON,ioos:station:SCCF:13:1,2019-09-03T23:00:00Z,26.5255,-82.0032,2.321,23.19,11111222 
SCCF RECON,ioos:station:SCCF:13:1,2019-09-04T04:00:00Z,26.5255,-82.0032,2.06,11.82,11111222 
SCCF RECON,ioos:station:SCCF:13:1,2019-09-04T05:00:00Z,26.5255,-82.0032,2.12,10.48,11111222 
SCCF RECON,ioos:station:SCCF:13:1,2019-09-04T06:00:00Z,26.5255,-82.0032,2.26,11.61,11111222 
SCCF RECON,ioos:station:SCCF:13:1,2019-09-04T07:00:00Z,26.5255,-82.0032,2.36,16.51,11111222 
SCCF RECON,ioos:station:SCCF:13:1,2019-09-04T08:00:00Z,26.5255,-82.0032,2.44,18.98,11111222 
SCCF RECON,ioos:station:SCCF:13:1,2019-09-04T09:00:00Z,26.5255,-82.0032,2.49,23.6,11111222 
SCCF RECON,ioos:station:SCCF:13:1,2019-09-04T10:00:00Z,26.5255,-82.0032,2.48,24.7,11111222 
SCCF RECON,ioos:station:SCCF:13:1,2019-09-04T11:00:00Z,26.5255,-82.0032,2.44,24.74,11111222 
SCCF RECON,ioos:station:SCCF:13:1,2019-09-04T12:00:00Z,26.5255,-82.0032,2.359,24.84,11111222 
SCCF RECON,ioos:station:SCCF:13:1,2019-09-04T13:00:00Z,26.5255,-82.0032,2.237,22.62,11111222 
SCCF RECON,ioos:station:SCCF:13:1,2019-09-04T14:00:00Z,26.5255,-82.0032,2.169,18.88,11111222 
SCCF RECON,ioos:station:SCCF:13:1,2019-09-04T15:00:00Z,26.5255,-82.0032,2.099,14.64,11111222 
SCCF RECON,ioos:station:SCCF:13:1,2019-09-04T16:00:00Z,26.5255,-82.0032,2.033,13.45,11111222 
SCCF RECON,ioos:station:SCCF:13:1,2019-09-04T17:00:00Z,26.5255,-82.0032,1.999,12.29,11111222 
SCCF RECON,ioos:station:SCCF:13:1,2019-09-04T18:00:00Z,26.5255,-82.0032,2.061,10.68,11111222 
SCCF RECON,ioos:station:SCCF:13:1,2019-09-04T19:00:00Z,26.5255,-82.0032,2.175,10.65,11111222 
SCCF RECON,ioos:station:SCCF:13:1,2019-09-04T20:00:00Z,26.5255,-82.0032,2.248,12.59,11111222 
SCCF RECON,ioos:station:SCCF:13:1,2019-09-04T21:00:00Z,26.5255,-82.0032,2.286,14.78,11111222 
SCCF RECON,ioos:station:SCCF:13:1,2019-09-04T22:00:00Z,26.5255,-82.0032,2.3,17.18,11111222 
SCCF RECON,ioos:station:SCCF:13:1,2019-09-04T23:00:00Z,26.5255,-82.0032,2.32,18.12,11111222 
SCCF RECON,ioos:station:SCCF:13:1,2019-09-05T04:00:00Z,26.5255,-82.0032,2.19,14.85,11111222 
SCCF RECON,ioos:station:SCCF:13:1,2019-09-05T05:00:00Z,26.5255,-82.0032,2.23,13.01,11111222 
SCCF RECON,ioos:station:SCCF:13:1,2019-09-05T06:00:00Z,26.5255,-82.0032,2.31,13.43,11111222 
SCCF RECON,ioos:station:SCCF:13:1,2019-09-05T07:00:00Z,26.5255,-82.0032,2.4,16.65,11111222 
SCCF RECON,ioos:station:SCCF:13:1,2019-09-05T08:00:00Z,26.5255,-82.0032,2.47,18.41,11111222 
SCCF RECON,ioos:station:SCCF:13:1,2019-09-05T09:00:00Z,26.5255,-82.0032,2.51,22.19,11111222 
SCCF RECON,ioos:station:SCCF:13:1,2019-09-05T10:00:00Z,26.5255,-82.0032,2.54,23.52,11111222 
SCCF RECON,ioos:station:SCCF:13:1,2019-09-05T11:00:00Z,26.5255,-82.0032,2.55,24.18,11111222 
SCCF RECON,ioos:station:SCCF:13:1,2019-09-05T12:00:00Z,26.5255,-82.0032,2.501,23.86,11111222 
SCCF RECON,ioos:station:SCCF:13:1,2019-09-05T13:00:00Z,26.5255,-82.0032,2.41,24.37,11111222 
SCCF RECON,ioos:station:SCCF:13:1,2019-09-05T14:00:00Z,26.5255,-82.0032,2.307,21.55,11111222 
SCCF RECON,ioos:station:SCCF:13:1,2019-09-05T15:00:00Z,26.5255,-82.0032,2.22,18.89,11111222 
SCCF RECON,ioos:station:SCCF:13:1,2019-09-05T16:00:00Z,26.5255,-82.0032,2.14,15.66,11111222 
SCCF RECON,ioos:station:SCCF:13:1,2019-09-05T17:00:00Z,26.5255,-82.0032,2.079,13.42,11111222 
SCCF RECON,ioos:station:SCCF:13:1,2019-09-05T18:00:00Z,26.5255,-82.0032,2.048,11.78,11111222 
SCCF RECON,ioos:station:SCCF:13:1,2019-09-05T19:00:00Z,26.5255,-82.0032,2.076,10.39,11111222 
SCCF RECON,ioos:station:SCCF:13:1,2019-09-05T20:00:00Z,26.5255,-82.0032,2.15,9.41,11111222 
SCCF RECON,ioos:station:SCCF:13:1,2019-09-05T21:00:00Z,26.5255,-82.0032,2.21,9.89,11111222 
SCCF RECON,ioos:station:SCCF:13:1,2019-09-05T22:00:00Z,26.5255,-82.0032,2.249,12.41,11111222 
SCCF RECON,ioos:station:SCCF:13:1,2019-09-05T23:00:00Z,26.5255,-82.0032,2.275,13.32,11111222 
SCCF RECON,ioos:station:SCCF:13:1,2019-09-06T04:00:00Z,26.5255,-82.0032,2.319,22.92,11111222 
SCCF RECON,ioos:station:SCCF:13:1,2019-09-06T05:00:00Z,26.5255,-82.0032,2.277,19.95,11111222 
SCCF RECON,ioos:station:SCCF:13:1,2019-09-06T07:00:00Z,26.5255,-82.0032,2.36,17.18,11111222 
SCCF RECON,ioos:station:SCCF:13:1,2019-09-06T08:00:00Z,26.5255,-82.0032,2.43,21.83,11111222 
SCCF RECON,ioos:station:SCCF:13:1,2019-09-06T09:00:00Z,26.5255,-82.0032,2.48,17.98,11111222 
SCCF RECON,ioos:station:SCCF:13:1,2019-09-06T10:00:00Z,26.5255,-82.0032,2.52,19.84,11111222 
SCCF RECON,ioos:station:SCCF:13:1,2019-09-06T11:00:00Z,26.5255,-82.0032,2.56,24.14,11111222 
SCCF RECON,ioos:station:SCCF:13:1,2019-09-06T12:00:00Z,26.5255,-82.0032,2.56,25.35,11111222 
SCCF RECON,ioos:station:SCCF:13:1,2019-09-06T13:00:00Z,26.5255,-82.0032,2.51,26.19,11111222 
SCCF RECON,ioos:station:SCCF:13:1,2019-09-06T14:00:00Z,26.5255,-82.0032,2.42,23.92,11111222 
SCCF RECON,ioos:station:SCCF:13:1,2019-09-06T15:00:00Z,26.5255,-82.0032,2.3,21.33,11111222 
SCCF RECON,ioos:station:SCCF:13:1,2019-09-06T16:00:00Z,26.5255,-82.0032,2.23,18.26,11111222 
SCCF RECON,ioos:station:SCCF:13:1,2019-09-06T17:00:00Z,26.5255,-82.0032,2.16,15.83,11111222 
SCCF RECON,ioos:station:SCCF:13:1,2019-09-06T18:00:00Z,26.5255,-82.0032,2.097,13.69,11111222 
SCCF RECON,ioos:station:SCCF:13:1,2019-09-06T19:00:00Z,26.5255,-82.0032,2.059,12.08,11111222 
SCCF RECON,ioos:station:SCCF:13:1,2019-09-06T20:00:00Z,26.5255,-82.0032,2.068,10.77,11111222 
SCCF RECON,ioos:station:SCCF:13:1,2019-09-06T21:00:00Z,26.5255,-82.0032,2.135,9.73,11111222 
SCCF RECON,ioos:station:SCCF:13:1,2019-09-06T22:00:00Z,26.5255,-82.0032,2.209,10.23,11111222 
SCCF RECON,ioos:station:SCCF:13:1,2019-09-06T23:00:00Z,26.5255,-82.0032,2.253,12.65,11111222 
SCCF RECON,ioos:station:SCCF:13:1,2019-09-07T04:00:00Z,26.5255,-82.0032,2.45,25.21,11111222 
SCCF RECON,ioos:station:SCCF:13:1,2019-09-07T05:00:00Z,26.5255,-82.0032,2.45,26.06,11111222 
SCCF RECON,ioos:station:SCCF:13:1,2019-09-07T06:00:00Z,26.5255,-82.0032,2.45,27.47,11111222 
SCCF RECON,ioos:station:SCCF:13:1,2019-09-07T07:00:00Z,26.5255,-82.0032,2.44,26.77,11111222 
SCCF RECON,ioos:station:SCCF:13:1,2019-09-07T08:00:00Z,26.5255,-82.0032,2.45,24.97,11111222 
SCCF RECON,ioos:station:SCCF:13:1,2019-09-07T09:00:00Z,26.5255,-82.0032,2.49,26.07,11111222 
SCCF RECON,ioos:station:SCCF:13:1,2019-09-07T10:00:00Z,26.5255,-82.0032,2.589,27.31,11111222 
SCCF RECON,ioos:station:SCCF:13:1,2019-09-07T11:00:00Z,26.5255,-82.0032,2.58,27.2,11111222 
SCCF RECON,ioos:station:SCCF:13:1,2019-09-07T12:00:00Z,26.5255,-82.0032,2.58,26.82,11111222 
SCCF RECON,ioos:station:SCCF:13:1,2019-09-07T13:00:00Z,26.5255,-82.0032,2.57,28.39,11111222 
SCCF RECON,ioos:station:SCCF:13:1,2019-09-07T14:00:00Z,26.5255,-82.0032,2.56,28.56,11111222 
SCCF RECON,ioos:station:SCCF:13:1,2019-09-07T15:00:00Z,26.5255,-82.0032,2.499,28.23,11111222 
SCCF RECON,ioos:station:SCCF:13:1,2019-09-07T16:00:00Z,26.5255,-82.0032,2.369,23.76,11111222 
SCCF RECON,ioos:station:SCCF:13:1,2019-09-07T17:00:00Z,26.5255,-82.0032,2.26,15.44,11111222 
SCCF RECON,ioos:station:SCCF:13:1,2019-09-07T18:00:00Z,26.5255,-82.0032,2.181,13.13,11111222 
SCCF RECON,ioos:station:SCCF:13:1,2019-09-07T19:00:00Z,26.5255,-82.0032,2.106,12.1,11111222 
SCCF RECON,ioos:station:SCCF:13:1,2019-09-07T20:00:00Z,26.5255,-82.0032,2.048,11.6,11111222 
SCCF RECON,ioos:station:SCCF:13:1,2019-09-07T21:00:00Z,26.5255,-82.0032,2.042,10.63,11111222 
SCCF RECON,ioos:station:SCCF:13:1,2019-09-07T22:00:00Z,26.5255,-82.0032,2.138,9.78,11111222 
SCCF RECON,ioos:station:SCCF:13:1,2019-09-07T23:00:00Z,26.5255,-82.0032,2.22,9.99,11111222 
SCCF RECON,ioos:station:SCCF:13:1,2019-09-08T04:00:00Z,26.5255,-82.0032,2.48,24.9,11111222 
SCCF RECON,ioos:station:SCCF:13:1,2019-09-08T05:00:00Z,26.5255,-82.0032,2.49,25.75,11111222 
SCCF RECON,ioos:station:SCCF:13:1,2019-09-08T06:00:00Z,26.5255,-82.0032,2.47,26.04,11111222 
SCCF RECON,ioos:station:SCCF:13:1,2019-09-08T07:00:00Z,26.5255,-82.0032,2.43,27.5,11111222 
SCCF RECON,ioos:station:SCCF:13:1,2019-09-08T08:00:00Z,26.5255,-82.0032,2.4,27.53,11111222 
SCCF RECON,ioos:station:SCCF:13:1,2019-09-08T09:00:00Z,26.5255,-82.0032,2.43,26.49,11111222 
SCCF RECON,ioos:station:SCCF:13:1,2019-09-08T10:00:00Z,26.5255,-82.0032,2.51,26.2,11111222 
SCCF RECON,ioos:station:SCCF:13:1,2019-09-08T11:00:00Z,26.5255,-82.0032,2.57,23.56,11111222 
SCCF RECON,ioos:station:SCCF:13:1,2019-09-08T12:00:00Z,26.5255,-82.0032,2.6,25.53,11111222 
SCCF RECON,ioos:station:SCCF:13:1,2019-09-08T13:00:00Z,26.5255,-82.0032,2.63,27.37,11111222 
SCCF RECON,ioos:station:SCCF:13:1,2019-09-08T14:00:00Z,26.5255,-82.0032,2.65,29.76,11111222 
SCCF RECON,ioos:station:SCCF:13:1,2019-09-08T15:00:00Z,26.5255,-82.0032,2.62,28.92,11111222 
SCCF RECON,ioos:station:SCCF:13:1,2019-09-08T16:00:00Z,26.5255,-82.0032,2.55,30.18,11111222 
SCCF RECON,ioos:station:SCCF:13:1,2019-09-08T17:00:00Z,26.5255,-82.0032,2.45,27.66,11111222 
SCCF RECON,ioos:station:SCCF:13:1,2019-09-08T18:00:00Z,26.5255,-82.0032,2.35,21.33,11111222 
SCCF RECON,ioos:station:SCCF:13:1,2019-09-08T19:00:00Z,26.5255,-82.0032,2.254,16.36,11111222 
SCCF RECON,ioos:station:SCCF:13:1,2019-09-08T20:00:00Z,26.5255,-82.0032,2.171,13.51,11111222 
SCCF RECON,ioos:station:SCCF:13:1,2019-09-08T21:00:00Z,26.5255,-82.0032,2.112,12.79,11111222 
SCCF RECON,ioos:station:SCCF:13:1,2019-09-08T22:00:00Z,26.5255,-82.0032,2.1,12.89,11111222 
SCCF RECON,ioos:station:SCCF:13:1,2019-09-08T23:00:00Z,26.5255,-82.0032,2.16,12.26,11111222 
SCCF RECON,ioos:station:SCCF:13:1,2019-09-09T04:00:00Z,26.5255,-82.0032,2.5,25.5,11111222 
SCCF RECON,ioos:station:SCCF:13:1,2019-09-09T05:00:00Z,26.5255,-82.0032,2.51,27.99,11111222 
SCCF RECON,ioos:station:SCCF:13:1,2019-09-09T06:00:00Z,26.5255,-82.0032,2.5,28.73,11111222 
SCCF RECON,ioos:station:SCCF:13:1,2019-09-09T07:00:00Z,26.5255,-82.0032,2.47,28.96,11111222 
SCCF RECON,ioos:station:SCCF:13:1,2019-09-09T08:00:00Z,26.5255,-82.0032,2.42,27.98,11111222 
SCCF RECON,ioos:station:SCCF:13:1,2019-09-09T09:00:00Z,26.5255,-82.0032,2.36,26.64,11111222 
SCCF RECON,ioos:station:SCCF:13:1,2019-09-09T10:00:00Z,26.5255,-82.0032,2.36,24.02,11111222 
SCCF RECON,ioos:station:SCCF:13:1,2019-09-09T11:00:00Z,26.5255,-82.0032,2.45,25.91,11111222 
SCCF RECON,ioos:station:SCCF:13:1,2019-09-09T12:00:00Z,26.5255,-82.0032,2.53,24.29,11111222 
SCCF RECON,ioos:station:SCCF:13:1,2019-09-09T13:00:00Z,26.5255,-82.0032,2.57,23.86,11111222 
SCCF RECON,ioos:station:SCCF:13:1,2019-09-09T14:00:00Z,26.5255,-82.0032,2.615,27.2,11111222 
SCCF RECON,ioos:station:SCCF:13:1,2019-09-09T15:00:00Z,26.5255,-82.0032,2.649,28.5,11111222 
SCCF RECON,ioos:station:SCCF:13:1,2019-09-09T16:00:00Z,26.5255,-82.0032,2.629,29.38,11111222 
SCCF RECON,ioos:station:SCCF:13:1,2019-09-09T17:00:00Z,26.5255,-82.0032,2.54,29.73,11111222 
SCCF RECON,ioos:station:SCCF:13:1,2019-09-09T18:00:00Z,26.5255,-82.0032,2.43,29.15,11111222 
SCCF RECON,ioos:station:SCCF:13:1,2019-09-09T22:00:00Z,26.5255,-82.0032,2.1,13.59,11111222 
SCCF RECON,ioos:station:SCCF:13:1,2019-09-09T23:00:00Z,26.5255,-82.0032,2.11,13.67,11111222 
SCCF RECON,ioos:station:SCCF:13:1,2019-09-10T04:00:00Z,26.5255,-82.0032,2.483,22.65,11111222 
SCCF RECON,ioos:station:SCCF:13:1,2019-09-10T05:00:00Z,26.5255,-82.0032,2.53,27.17,11111222 
SCCF RECON,ioos:station:SCCF:13:1,2019-09-10T06:00:00Z,26.5255,-82.0032,2.481,28.44,11111222 
SCCF RECON,ioos:station:SCCF:13:1,2019-09-10T07:00:00Z,26.5255,-82.0032,2.41,28.54,11111222 
SCCF RECON,ioos:station:SCCF:13:1,2019-09-10T08:00:00Z,26.5255,-82.0032,2.4,27.28,11111222 
SCCF RECON,ioos:station:SCCF:13:1,2019-09-10T09:00:00Z,26.5255,-82.0032,2.39,23.7,11111222 
SCCF RECON,ioos:station:SCCF:13:1,2019-09-10T10:00:00Z,26.5255,-82.0032,2.38,22.91,11111222 
SCCF RECON,ioos:station:SCCF:13:1,2019-09-10T11:00:00Z,26.5255,-82.0032,2.36,21.14,11111222 
SCCF RECON,ioos:station:SCCF:13:1,2019-09-10T12:00:00Z,26.5255,-82.0032,2.435,27.67,11111222 
SCCF RECON,ioos:station:SCCF:13:1,2019-09-10T13:00:00Z,26.5255,-82.0032,2.53,23.82,11111222 
SCCF RECON,ioos:station:SCCF:13:1,2019-09-10T14:00:00Z,26.5255,-82.0032,2.57,24.29,11111222 
SCCF RECON,ioos:station:SCCF:13:1,2019-09-10T15:00:00Z,26.5255,-82.0032,2.611,27.83,11111222 
SCCF RECON,ioos:station:SCCF:13:1,2019-09-10T16:00:00Z,26.5255,-82.0032,2.62,28.7,11111222 
SCCF RECON,ioos:station:SCCF:13:1,2019-09-10T17:00:00Z,26.5255,-82.0032,2.59,29.04,11111222 
SCCF RECON,ioos:station:SCCF:13:1,2019-09-10T18:00:00Z,26.5255,-82.0032,2.519,29.32,11111222 
SCCF RECON,ioos:station:SCCF:13:1,2019-09-10T19:00:00Z,26.5255,-82.0032,2.39,28.61,11111222 
SCCF RECON,ioos:station:SCCF:13:1,2019-09-10T20:00:00Z,26.5255,-82.0032,2.27,17.32,11111222 
SCCF RECON,ioos:station:SCCF:13:1,2019-09-10T21:00:00Z,26.5255,-82.0032,2.178,15.3,11111222 
SCCF RECON,ioos:station:SCCF:13:1,2019-09-10T22:00:00Z,26.5255,-82.0032,2.101,13.42,11111222 
SCCF RECON,ioos:station:SCCF:13:1,2019-09-10T23:00:00Z,26.5255,-82.0032,2.05,13.5,11111222 
SCCF RECON,ioos:station:SCCF:13:1,2019-09-11T04:00:00Z,26.5255,-82.0032,2.392,19.61,11111222 
SCCF RECON,ioos:station:SCCF:13:1,2019-09-11T05:00:00Z,26.5255,-82.0032,2.399,23.87,11111222 
SCCF RECON,ioos:station:SCCF:13:1,2019-09-11T06:00:00Z,26.5255,-82.0032,2.39,27.02,11111222 
SCCF RECON,ioos:station:SCCF:13:1,2019-09-11T07:00:00Z,26.5255,-82.0032,2.34,27.53,11111222 
SCCF RECON,ioos:station:SCCF:13:1,2019-09-11T08:00:00Z,26.5255,-82.0032,2.26,27.49,11111222 
SCCF RECON,ioos:station:SCCF:13:1,2019-09-11T09:00:00Z,26.5255,-82.0032,2.17,22.55,11111222 
SCCF RECON,ioos:station:SCCF:13:1,2019-09-11T10:00:00Z,26.5255,-82.0032,2.15,14.92,11111222 
SCCF RECON,ioos:station:SCCF:13:1,2019-09-11T11:00:00Z,26.5255,-82.0032,2.2,12.42,11111222 
SCCF RECON,ioos:station:SCCF:13:1,2019-09-11T12:00:00Z,26.5255,-82.0032,2.3,19.94,11111222 
SCCF RECON,ioos:station:SCCF:13:1,2019-09-11T13:00:00Z,26.5255,-82.0032,2.389,23.27,11111222 
SCCF RECON,ioos:station:SCCF:13:1,2019-09-11T14:00:00Z,26.5255,-82.0032,2.45,23.43,11111222 
SCCF RECON,ioos:station:SCCF:13:1,2019-09-11T15:00:00Z,26.5255,-82.0032,2.51,26.2,11111222 
SCCF RECON,ioos:station:SCCF:13:1,2019-09-11T16:00:00Z,26.5255,-82.0032,2.547,27.75,11111222 
SCCF RECON,ioos:station:SCCF:13:1,2019-09-11T17:00:00Z,26.5255,-82.0032,2.539,28.73,11111222 
SCCF RECON,ioos:station:SCCF:13:1,2019-09-11T18:00:00Z,26.5255,-82.0032,2.47,29.33,11111222 
SCCF RECON,ioos:station:SCCF:13:1,2019-09-11T19:00:00Z,26.5255,-82.0032,2.35,29.32,11111222 
SCCF RECON,ioos:station:SCCF:13:1,2019-09-11T20:00:00Z,26.5255,-82.0032,2.233,23.57,11111222 
SCCF RECON,ioos:station:SCCF:13:1,2019-09-11T21:00:00Z,26.5255,-82.0032,2.131,15.95,11111222 
SCCF RECON,ioos:station:SCCF:13:1,2019-09-11T22:00:00Z,26.5255,-82.0032,2.049,16.32,11111222 
SCCF RECON,ioos:station:SCCF:13:1,2019-09-11T23:00:00Z,26.5255,-82.0032,1.97,14.71,11111222 
SCCF RECON,ioos:station:SCCF:13:1,2019-09-12T04:00:00Z,26.5255,-82.0032,2.29,19.16,11111222 
SCCF RECON,ioos:station:SCCF:13:1,2019-09-12T05:00:00Z,26.5255,-82.0032,2.342,23.33,11111222 
SCCF RECON,ioos:station:SCCF:13:1,2019-09-12T06:00:00Z,26.5255,-82.0032,2.37,26.51,11111222 
SCCF RECON,ioos:station:SCCF:13:1,2019-09-12T07:00:00Z,26.5255,-82.0032,2.321,26.98,11111222 
SCCF RECON,ioos:station:SCCF:13:1,2019-09-12T08:00:00Z,26.5255,-82.0032,2.24,27.55,11111222 
SCCF RECON,ioos:station:SCCF:13:1,2019-09-12T09:00:00Z,26.5255,-82.0032,2.18,26.84,11111222 
SCCF RECON,ioos:station:SCCF:13:1,2019-09-12T10:00:00Z,26.5255,-82.0032,2.13,24.99,11111222 
SCCF RECON,ioos:station:SCCF:13:1,2019-09-12T11:00:00Z,26.5255,-82.0032,2.13,20.29,11111222 
SCCF RECON,ioos:station:SCCF:13:1,2019-09-12T12:00:00Z,26.5255,-82.0032,2.15,17.56,11111222 
SCCF RECON,ioos:station:SCCF:13:1,2019-09-12T13:00:00Z,26.5255,-82.0032,2.246,22.67,11111222 
SCCF RECON,ioos:station:SCCF:13:1,2019-09-12T14:00:00Z,26.5255,-82.0032,2.361,22.27,11111222 
SCCF RECON,ioos:station:SCCF:13:1,2019-09-12T15:00:00Z,26.5255,-82.0032,2.442,25.35,11111222 
SCCF RECON,ioos:station:SCCF:13:1,2019-09-12T16:00:00Z,26.5255,-82.0032,2.49,27.31,11111222 
SCCF RECON,ioos:station:SCCF:13:1,2019-09-13T20:00:00Z,26.5255,-82.0032,2.31,28.84,11111222 
SCCF RECON,ioos:station:SCCF:13:1,2019-09-13T21:00:00Z,26.5255,-82.0032,2.2,25.77,11111222 
SCCF RECON,ioos:station:SCCF:13:1,2019-09-13T22:00:00Z,26.5255,-82.0032,2.12,19.0,11111222 
SCCF RECON,ioos:station:SCCF:13:1,2019-09-13T23:00:00Z,26.5255,-82.0032,2.041,17.25,11111222 
SCCF RECON,ioos:station:SCCF:13:1,2019-09-14T04:00:00Z,26.5255,-82.0032,2.25,18.39,11111222 
SCCF RECON,ioos:station:SCCF:13:1,2019-09-14T05:00:00Z,26.5255,-82.0032,2.31,22.1,11111222 
SCCF RECON,ioos:station:SCCF:13:1,2019-09-14T06:00:00Z,26.5255,-82.0032,2.33,25.07,11111222 
SCCF RECON,ioos:station:SCCF:13:1,2019-09-14T07:00:00Z,26.5255,-82.0032,2.37,27.22,11111222 
SCCF RECON,ioos:station:SCCF:13:1,2019-09-14T08:00:00Z,26.5255,-82.0032,2.33,27.15,11111222 
SCCF RECON,ioos:station:SCCF:13:1,2019-09-14T09:00:00Z,26.5255,-82.0032,2.25,27.42,11111222 
SCCF RECON,ioos:station:SCCF:13:1,2019-09-14T10:00:00Z,26.5255,-82.0032,2.16,27.06,11111222 
SCCF RECON,ioos:station:SCCF:13:1,2019-09-14T11:00:00Z,26.5255,-82.0032,2.11,23.86,11111222 
SCCF RECON,ioos:station:SCCF:13:1,2019-09-14T12:00:00Z,26.5255,-82.0032,2.09,17.66,11111222 
SCCF RECON,ioos:station:SCCF:13:1,2019-09-14T13:00:00Z,26.5255,-82.0032,2.12,16.2,11111222 
SCCF RECON,ioos:station:SCCF:13:1,2019-09-14T14:00:00Z,26.5255,-82.0032,2.22,16.14,11111222 
SCCF RECON,ioos:station:SCCF:13:1,2019-09-14T15:00:00Z,26.5255,-82.0032,2.313,23.06,11111222 
SCCF RECON,ioos:station:SCCF:13:1,2019-09-14T16:00:00Z,26.5255,-82.0032,2.371,24.61,11111222 
SCCF RECON,ioos:station:SCCF:13:1,2019-09-14T17:00:00Z,26.5255,-82.0032,2.45,25.87,11111222 
SCCF RECON,ioos:station:SCCF:13:1,2019-09-14T18:00:00Z,26.5255,-82.0032,2.485,28.08,11111222 
SCCF RECON,ioos:station:SCCF:13:1,2019-09-14T19:00:00Z,26.5255,-82.0032,2.5,28.86,11111222 
SCCF RECON,ioos:station:SCCF:13:1,2019-09-14T20:00:00Z,26.5255,-82.0032,2.43,28.79,11111222 
SCCF RECON,ioos:station:SCCF:13:1,2019-09-14T21:00:00Z,26.5255,-82.0032,2.379,29.27,11111222 
SCCF RECON,ioos:station:SCCF:13:1,2019-09-14T22:00:00Z,26.5255,-82.0032,2.25,27.48,11111222 
SCCF RECON,ioos:station:SCCF:13:1,2019-09-14T23:00:00Z,26.5255,-82.0032,2.15,21.26,11111222 
SCCF RECON,ioos:station:SCCF:13:1,2019-09-15T04:00:00Z,26.5255,-82.0032,2.307,19.47,11111222 
SCCF RECON,ioos:station:SCCF:13:1,2019-09-15T05:00:00Z,26.5255,-82.0032,2.37,22.67,11111222 
SCCF RECON,ioos:station:SCCF:13:1,2019-09-15T06:00:00Z,26.5255,-82.0032,2.38,25.24,11111222 
SCCF RECON,ioos:station:SCCF:13:1,2019-09-15T07:00:00Z,26.5255,-82.0032,2.45,27.06,11111222 
SCCF RECON,ioos:station:SCCF:13:1,2019-09-15T08:00:00Z,26.5255,-82.0032,2.45,28.24,11111222 